User: anonymous   Login
Location: Palmerston North
(40.3500°S, 175.6170°E)
Time: 05:59:39
(UTC+13:00)
Language:

Cosmos 2322 Rocket - Orbit

View from above orbital plane
View from above orbital plane
View from above satellite
View from above satellite

Ground track
Ground track

The orbit data is extracted from the following two-line orbital elements,

1 23705U 95058B   19295.45722016  .00000167  00000-0  11044-3 0  9994
2 23705  71.0239  30.3972 0010459  67.8851 292.3381 14.15126532238460
Epoch (UTC): 22 October 2019 10:58:23
Eccentricity: 0.0010459
inclination: 71.0239°
perigee height: 834 km
apogee height: 849 km
right ascension of ascending node: 30.3972°
argument of perigee: 67.8851°
revolutions per day: 14.15126532
mean anomaly at epoch: 292.3381°
orbit number at epoch: 23846

The dashed part of the orbit path shows where the satellite is in the earth's shadow,  

DLR